This demonstration page uses our WeatherBlox Daily Observations layout. Learn more.

Left ArrowRight Arrow

Hourly Observations for July 27, 2021

Temp ( °F °C ) Dew Point ( °F °C ) Humidity (%) Winds ( mph kmh ) Pressure ( in mb ) Visibility ( mi km ) Precip ( " mm )
12:15 am 00:15 Clear 72 22.1 68 20.1 88 88 SSE 5 7 29.94 1014 10 16 0.00 0.00
12:35 am 00:35 Clear 72 22 68 20 88 88 SSE 3 6 29.95 1014 10 16 0.00 0.00
12:55 am 00:55 Clear 71 21.7 68 20 90 90 S 3 6 29.94 1014 10 16 0.00 0.00
1:15 am 01:15 Clear 71 21.5 68 20 91 91 S 5 7 29.95 1014 10 16 0.00 0.00
1:35 am 01:35 Clear 71 21.5 68 19.8 90 90 S 3 6 29.95 1014 10 16 0.00 0.00
1:55 am 01:55 Clear 70 21.3 68 19.8 91 91 S 5 7 29.96 1014 10 16 0.00 0.00
2:15 am 02:15 Clear 71 21.5 68 20 91 91 S 5 7 29.94 1014 10 16 0.00 0.00
2:35 am 02:35 Clear 71 21.5 68 20 91 91 S 6 9 29.94 1014 10 16 0.00 0.00
2:55 am 02:55 Clear 70 21 67 19.6 92 92 S 3 6 29.95 1014 10 16 0.00 0.00
3:15 am 03:15 Clear 70 20.9 67 19.6 92 92 S 5 7 29.95 1014 10 16 0.00 0.00
3:35 am 03:35 Clear 69 20.7 67 19.5 93 93 S 5 7 29.95 1014 10 16 0.00 0.00
3:55 am 03:55 Clear 69 20.6 67 19.5 93 93 S 5 7 29.95 1014 10 16 0.00 0.00
4:15 am 04:15 Clear 69 20.5 67 19.5 94 94 S 5 7 29.96 1015 10 16 0.00 0.00
4:35 am 04:35 Clear 69 20.5 67 19.5 94 94 S 6 9 29.96 1015 10 16 0.00 0.00
4:55 am 04:55 Clear 69 20.5 67 19.3 93 93 S 5 7 29.96 1015 10 16 0.00 0.00
5:15 am 05:15 Clear 68 20.1 66 19.1 94 94 S 5 7 29.97 1015 10 16 0.00 0.00
5:35 am 05:35 Clear 68 20.2 67 19.2 94 94 S 5 7 29.97 1015 10 16 0.00 0.00
5:55 am 05:55 Clear 68 20 66 19 94 94 S 3 6 29.97 1015 10 16 0.00 0.00
6:15 am 06:15 Clear 68 20.2 66 19.1 93 93 S 5 7 29.97 1015 10 16 0.00 0.00
6:35 am 06:35 Sunny 68 20.1 66 19 93 93 S 3 6 29.98 1015 10 16 0.00 0.00
6:55 am 06:55 Sunny 68 20.2 66 19.1 93 93 Calm 29.98 1015 10 16 0.00 0.00
7:15 am 07:15 Sunny 69 20.5 67 19.2 92 92 Calm 29.98 1015 10 16 0.00 0.00
7:35 am 07:35 Sunny 70 21 67 19.5 91 91 Calm 29.98 1015 10 16 0.00 0.00
7:55 am 07:55 Sunny 71 21.5 68 19.9 91 91 S 3 6 29.97 1015 10 16 0.00 0.00
8:15 am 08:15 Sunny 72 22.1 69 20.5 91 91 SSW 3 6 29.97 1015 10 16 0.00 0.00
8:35 am 08:35 Sunny 73 23 69 20.8 87 87 S 6 9 29.97 1015 10 16 0.00 0.00
8:55 am 08:55 Sunny 75 23.7 70 21 85 85 SSW 6 9 29.97 1015 10 16 0.00 0.00
9:15 am 09:15 Sunny 76 24.6 70 21.3 82 82 SSW 7 11 29.96 1015 10 16 0.00 0.00
9:35 am 09:35 Sunny 78 25.5 71 21.6 79 79 SW 6 9 29.96 1015 10 16 0.00 0.00
9:55 am 09:55 Sunny 79 26 70 21.3 75 75 SSW 7 11 29.96 1015 10 16 0.00 0.00
10:15 am 10:15 Sunny 80 26.5 71 21.6 75 75 SSW 6 9 29.95 1014 10 16 0.00 0.00
10:35 am 10:35 Sunny 80 26.9 71 21.7 73 73 SSW 5 7 29.95 1014 10 16 0.00 0.00
10:55 am 10:55 Sunny 82 27.5 72 22.3 73 73 SSW 3 6 29.95 1014 10 16 0.00 0.00
11:15 am 11:15 Sunny 83 28.1 72 22.1 70 70 S 5 7 29.94 1014 10 16 0.00 0.00
11:35 am 11:35 Sunny 84 28.7 73 22.5 69 69 S 7 11 29.94 1014 10 16 0.00 0.00
11:55 am 11:55 Sunny 84 29.1 72 22.3 67 67 S 8 13 29.93 1014 10 16 0.00 0.00
12:15 pm 12:15 Sunny 85 29.6 72 22 64 64 S 8 13 29.93 1014 10 16 0.00 0.00
12:35 pm 12:35 Sunny 86 30.1 71 21.8 61 61 S 9 15 29.93 1013 10 16 0.00 0.00
12:55 pm 12:55 Sunny 86 30.1 73 22.6 64 64 SSE 8 13 29.93 1013 10 16 0.00 0.00
1:15 pm 13:15 Sunny 87 30.4 73 22.9 64 64 SSW 9 15 29.92 1013 10 16 0.00 0.00
1:35 pm 13:35 Sunny 88 31.1 72 22.4 60 60 S 8 13 29.91 1013 10 16 0.00 0.00
1:55 pm 13:55 Sunny 88 31.3 74 23.2 62 62 S 10 17 29.91 1013 10 16 0.00 0.00
2:15 pm 14:15 Sunny 89 31.4 72 22.3 58 58 S 10 17 29.90 1012 10 16 0.00 0.00
2:35 pm 14:35 Sunny 89 31.6 71 21.6 55 55 SSE 9 15 29.89 1012 10 16 0.00 0.00
2:55 pm 14:55 Sunny 89 31.7 71 21.8 56 56 SSE 7 11 29.90 1013 10 16 0.00 0.00
3:15 pm 15:15 Sunny 90 32 71 21.8 55 55 SSE 9 15 29.90 1013 10 16 0.00 0.00
3:35 pm 15:35 Sunny 90 32.3 70 21.2 52 52 S 8 13 29.89 1012 10 16 0.00 0.00
3:55 pm 15:55 Sunny 91 32.5 71 21.8 53 53 S 7 11 29.89 1012 10 16 0.00 0.00
4:15 pm 16:15 Sunny 91 32.6 72 22.3 55 55 S 8 13 29.89 1012 10 16 0.00 0.00
4:35 pm 16:35 Sunny 91 32.7 73 22.6 55 55 SSE 7 11 29.89 1012 10 16 0.00 0.00
4:55 pm 16:55 Sunny 91 32.8 72 22.2 54 54 SSE 7 11 29.88 1012 10 16 0.00 0.00
5:15 pm 17:15 Sunny 91 32.7 72 22.3 54 54 SSE 8 13 29.88 1012 10 16 0.00 0.00
5:35 pm 17:35 Sunny 91 32.6 73 22.6 56 56 SSE 6 9 29.88 1012 10 16 0.00 0.00
5:55 pm 17:55 Sunny 91 32.6 73 22.8 56 56 SSE 7 11 29.88 1012 10 16 0.00 0.00
6:15 pm 18:15 Sunny 90 32.3 73 23 58 58 SSE 6 9 29.87 1011 10 16 0.00 0.00
6:35 pm 18:35 Sunny 90 32.2 73 22.8 58 58 SSE 6 9 29.87 1012 10 16 0.00 0.00
6:55 pm 18:55 Sunny 89 31.9 74 23.4 61 61 SE 5 7 29.86 1011 10 16 0.00 0.00
7:15 pm 19:15 Sunny 88 31.2 76 24.6 68 68 ESE 5 7 29.87 1011 10 16 0.00 0.00
7:35 pm 19:35 Sunny 87 30.4 76 24.7 72 72 ESE 6 9 29.87 1012 10 16 0.00 0.00
7:55 pm 19:55 Sunny 86 29.8 76 24.7 74 74 ESE 6 9 29.88 1012 10 16 0.00 0.00
8:15 pm 20:15 Sunny 84 28.8 76 24.7 79 79 ESE 5 7 29.89 1012 10 16 0.00 0.00
8:35 pm 20:35 Sunny 82 28 77 24.8 83 83 ESE 6 9 29.88 1012 10 16 0.00 0.00
8:55 pm 20:55 Sunny 81 27 76 24.7 87 87 ESE 6 9 29.90 1013 10 16 0.00 0.00
9:15 pm 21:15 Clear 81 27.1 76 24.2 84 84 SE 7 11 29.90 1013 10 16 0.00 0.00
9:35 pm 21:35 Clear 80 26.5 75 23.7 85 85 SE 7 11 29.91 1013 10 16 0.00 0.00
9:55 pm 21:55 Clear 79 25.9 74 23.3 86 86 ESE 7 11 29.93 1014 10 16 0.00 0.00
10:15 pm 22:15 Clear 78 25.6 73 23 86 86 SE 7 11 29.94 1014 10 16 0.00 0.00
10:35 pm 22:35 Clear 77 25.2 73 22.5 85 85 SE 7 11 29.94 1014 10 16 0.00 0.00
10:55 pm 22:55 Clear 77 25 72 22.2 85 85 SE 6 9 29.95 1014 10 16 0.00 0.00
11:15 pm 23:15 Clear 77 25 72 22 83 83 SE 7 11 29.95 1014 10 16 0.00 0.00
11:35 pm 23:35 Clear 77 24.8 72 22 84 84 SSE 7 11 29.95 1014 10 16 0.00 0.00
11:55 pm 23:55 Clear 76 24.5 71 21.6 84 84 SSE 6 9 29.96 1015 10 16 0.00 0.00

Powered by AerisWeather